Time,TemperatureF,DewpointF,PressureIn,WindDirection,WindDirectionDegrees,WindSpeedMPH,WindSpeedGustMPH,Humidity,HourlyPrecipIn,Conditions,Clouds,dailyrainin,SoftwareType,DateUTC
2013-02-12 00:05:00,51.8,49.0,30.04,SSW,195,2.0,5.0,90,0.00,,,0.00,weatherlink.com 1.10,2013-02-12 06:05:00,
2013-02-12 00:20:00,51.8,49.0,30.03,SE,138,0.0,3.0,89,0.00,,,0.00,weatherlink.com 1.10,2013-02-12 06:20:00,
2013-02-12 00:35:00,52.0,49.0,30.02,ESE,120,0.0,3.0,89,0.00,,,0.00,weatherlink.com 1.10,2013-02-12 06:35:00,
2013-02-12 00:50:00,52.4,49.0,30.02,West,271,0.0,5.0,87,0.00,,,0.00,weatherlink.com 1.10,2013-02-12 06:50:00,
2013-02-12 01:05:00,52.7,49.0,30.02,SE,142,4.0,5.0,87,0.00,,,0.00,weatherlink.com 1.10,2013-02-12 07:05:00,
2013-02-12 01:21:00,52.9,49.0,30.01,SSE,151,0.0,6.0,86,0.00,,,0.00,weatherlink.com 1.10,2013-02-12 07:21:00,
2013-02-12 01:36:00,53.0,49.0,30.00,SE,142,0.0,2.0,86,0.00,,,0.00,weatherlink.com 1.10,2013-02-12 07:36:00,
2013-02-12 01:50:00,53.0,49.0,29.99,SSE,159,0.0,3.0,85,0.00,,,0.00,weatherlink.com 1.10,2013-02-12 07:50:00,
2013-02-12 02:05:00,53.2,49.0,29.98,SSE,159,0.0,3.0,85,0.00,,,0.00,weatherlink.com 1.10,2013-02-12 08:05:00,
2013-02-12 02:21:00,53.0,49.0,29.95,SSE,154,0.0,3.0,86,0.00,,,0.00,weatherlink.com 1.10,2013-02-12 08:21:00,
2013-02-12 02:36:00,52.9,49.0,29.96,SSE,150,0.0,7.0,86,0.00,,,0.00,weatherlink.com 1.10,2013-02-12 08:36:00,
2013-02-12 02:51:00,53.0,49.0,29.96,SSE,162,0.0,5.0,86,0.00,,,0.00,weatherlink.com 1.10,2013-02-12 08:51:00,
2013-02-12 03:06:00,53.1,49.0,29.94,ESE,106,2.0,4.0,86,0.00,,,0.00,weatherlink.com 1.10,2013-02-12 09:06:00,
2013-02-12 03:21:00,53.1,49.0,29.95,SSE,163,0.0,4.0,86,0.00,,,0.00,weatherlink.com 1.10,2013-02-12 09:21:00,
2013-02-12 03:36:00,53.2,50.0,29.93,SSE,161,0.0,6.0,87,0.00,,,0.00,weatherlink.com 1.10,2013-02-12 09:36:00,
2013-02-12 03:54:00,53.0,50.0,29.94,SSE,161,0.0,2.0,88,0.01,,,0.01,weatherlink.com 1.10,2013-02-12 09:54:00,
2013-02-12 04:06:00,52.7,50.0,29.91,SSE,159,0.0,4.0,89,0.01,,,0.01,weatherlink.com 1.10,2013-02-12 10:06:00,
2013-02-12 04:21:00,52.6,50.0,29.91,SSE,161,0.0,4.0,89,0.01,,,0.01,weatherlink.com 1.10,2013-02-12 10:21:00,
2013-02-12 04:36:00,52.6,50.0,29.92,SSE,159,0.0,3.0,90,0.01,,,0.01,weatherlink.com 1.10,2013-02-12 10:36:00,
2013-02-12 04:51:00,52.6,50.0,29.91,South,170,0.0,1.0,90,0.00,,,0.01,weatherlink.com 1.10,2013-02-12 10:51:00,
2013-02-12 05:06:00,52.8,50.0,29.90,SE,135,0.0,2.0,90,0.00,,,0.01,weatherlink.com 1.10,2013-02-12 11:06:00,
2013-02-12 05:21:00,52.6,50.0,29.91,South,186,0.0,3.0,91,0.03,,,0.04,weatherlink.com 1.10,2013-02-12 11:21:00,
2013-02-12 05:37:00,52.3,50.0,29.88,South,190,0.0,1.0,91,0.06,,,0.07,weatherlink.com 1.10,2013-02-12 11:37:00,
2013-02-12 05:51:00,52.2,50.0,29.89,South,190,0.0,2.0,91,0.07,,,0.08,weatherlink.com 1.10,2013-02-12 11:51:00,
2013-02-12 06:06:00,52.2,50.0,29.88,South,190,0.0,0.0,91,0.07,,,0.08,weatherlink.com 1.10,2013-02-12 12:06:00,
2013-02-12 06:21:00,52.3,50.0,29.88,South,190,0.0,1.0,91,0.03,,,0.08,weatherlink.com 1.10,2013-02-12 12:21:00,
2013-02-12 06:36:00,52.3,50.0,29.88,South,190,0.0,2.0,91,0.01,,,0.08,weatherlink.com 1.10,2013-02-12 12:36:00,
2013-02-12 06:51:00,52.3,50.0,29.87,South,190,0.0,0.0,91,0.02,,,0.10,weatherlink.com 1.10,2013-02-12 12:51:00,
2013-02-12 07:06:00,52.3,50.0,29.87,South,190,0.0,1.0,91,0.04,,,0.12,weatherlink.com 1.10,2013-02-12 13:06:00,
2013-02-12 07:21:00,52.3,50.0,29.86,South,190,0.0,0.0,91,0.05,,,0.13,weatherlink.com 1.10,2013-02-12 13:21:00,
2013-02-12 07:36:00,52.1,50.0,29.86,SE,142,0.0,2.0,91,0.05,,,0.13,weatherlink.com 1.10,2013-02-12 13:36:00,
2013-02-12 07:51:00,52.0,50.0,29.86,North,360,0.0,3.0,91,0.04,,,0.14,weatherlink.com 1.10,2013-02-12 13:51:00,
2013-02-12 08:06:00,52.1,50.0,29.85,North,1,0.0,1.0,91,0.02,,,0.14,weatherlink.com 1.10,2013-02-12 14:06:00,
2013-02-12 08:21:00,52.3,50.0,29.86,West,259,0.0,4.0,90,0.01,,,0.14,weatherlink.com 1.10,2013-02-12 14:21:00,
2013-02-12 08:36:00,52.5,50.0,29.85,West,260,0.0,1.0,90,0.02,,,0.15,weatherlink.com 1.10,2013-02-12 14:36:00,
2013-02-12 08:51:00,52.6,50.0,29.87,WSW,253,0.0,3.0,90,0.22,,,0.36,weatherlink.com 1.10,2013-02-12 14:51:00,
2013-02-12 09:06:00,52.8,50.0,29.87,WSW,253,0.0,2.0,90,0.33,,,0.47,weatherlink.com 1.10,2013-02-12 15:06:00,
2013-02-12 09:21:00,52.8,50.0,29.87,WSW,253,0.0,1.0,90,0.35,,,0.49,weatherlink.com 1.10,2013-02-12 15:21:00,
2013-02-12 09:39:00,52.9,50.0,29.88,WSW,254,0.0,3.0,90,0.70,,,0.85,weatherlink.com 1.10,2013-02-12 15:39:00,
2013-02-12 09:51:00,53.1,50.0,29.87,West,277,0.0,3.0,90,0.51,,,0.88,weatherlink.com 1.10,2013-02-12 15:51:00,
2013-02-12 10:06:00,53.5,51.0,29.86,WNW,301,1.0,3.0,90,0.45,,,0.92,weatherlink.com 1.10,2013-02-12 16:06:00,
2013-02-12 10:21:00,53.5,51.0,29.86,West,281,0.0,2.0,90,0.45,,,0.94,weatherlink.com 1.10,2013-02-12 16:21:00,
2013-02-12 10:36:00,53.4,51.0,29.86,West,281,0.0,2.0,90,0.11,,,0.96,weatherlink.com 1.10,2013-02-12 16:36:00,
2013-02-12 10:51:00,53.5,51.0,29.86,West,275,0.0,0.0,90,0.08,,,0.96,weatherlink.com 1.10,2013-02-12 16:51:00,
2013-02-12 11:06:00,53.6,51.0,29.87,WNW,293,3.0,4.0,90,0.05,,,0.97,weatherlink.com 1.10,2013-02-12 17:06:00,
2013-02-12 11:21:00,53.3,51.0,29.86,West,272,0.0,3.0,90,0.04,,,0.99,weatherlink.com 1.10,2013-02-12 17:21:00,
2013-02-12 11:36:00,53.4,51.0,29.85,West,278,0.0,2.0,90,0.05,,,1.01,weatherlink.com 1.10,2013-02-12 17:36:00,
2013-02-12 11:51:00,53.3,51.0,29.85,NW,324,0.0,3.0,90,0.05,,,1.01,weatherlink.com 1.10,2013-02-12 17:51:00,
2013-02-12 12:06:00,53.3,51.0,29.86,WNW,294,0.0,3.0,90,0.06,,,1.03,weatherlink.com 1.10,2013-02-12 18:06:00,
2013-02-12 12:21:00,53.6,51.0,29.85,SW,216,0.0,1.0,90,0.04,,,1.03,weatherlink.com 1.10,2013-02-12 18:21:00,
2013-02-12 12:36:00,53.5,51.0,29.83,West,267,0.0,3.0,90,0.02,,,1.03,weatherlink.com 1.10,2013-02-12 18:36:00,
2013-02-12 12:51:00,53.4,50.0,29.83,North,355,0.0,3.0,89,0.02,,,1.03,weatherlink.com 1.10,2013-02-12 18:51:00,
2013-02-12 13:06:00,53.4,51.0,29.84,WNW,286,4.0,5.0,90,0.00,,,1.03,weatherlink.com 1.10,2013-02-12 19:06:00,
2013-02-12 13:22:00,53.6,51.0,29.84,WNW,294,0.0,5.0,90,0.00,,,1.03,weatherlink.com 1.10,2013-02-12 19:22:00,
2013-02-12 13:36:00,53.3,51.0,29.84,WNW,292,0.0,5.0,90,0.00,,,1.03,weatherlink.com 1.10,2013-02-12 19:36:00,
2013-02-12 13:51:00,53.2,50.0,29.84,NW,326,4.0,6.0,90,0.01,,,1.04,weatherlink.com 1.10,2013-02-12 19:51:00,
2013-02-12 14:06:00,52.9,50.0,29.85,WNW,284,4.0,10.0,90,0.01,,,1.04,weatherlink.com 1.10,2013-02-12 20:06:00,
2013-02-12 14:21:00,53.0,50.0,29.84,NW,305,0.0,6.0,90,0.01,,,1.04,weatherlink.com 1.10,2013-02-12 20:21:00,
2013-02-12 14:36:00,53.3,51.0,29.82,North,5,3.0,8.0,90,0.01,,,1.04,weatherlink.com 1.10,2013-02-12 20:36:00,
2013-02-12 14:51:00,53.4,51.0,29.82,WNW,293,1.0,6.0,91,0.00,,,1.04,weatherlink.com 1.10,2013-02-12 20:51:00,
2013-02-12 15:21:00,54.5,52.0,29.82,WNW,294,2.0,4.0,91,0.00,,,1.04,weatherlink.com 1.10,2013-02-12 21:21:00,
2013-02-12 15:37:00,54.7,52.0,29.82,NW,307,0.0,4.0,91,0.00,,,1.04,weatherlink.com 1.10,2013-02-12 21:37:00,
2013-02-12 15:52:00,55.0,53.0,29.82,WNW,303,0.0,4.0,91,0.00,,,1.04,weatherlink.com 1.10,2013-02-12 21:52:00,
2013-02-12 16:06:00,55.1,53.0,29.82,West,280,2.0,4.0,91,0.00,,,1.04,weatherlink.com 1.10,2013-02-12 22:06:00,
2013-02-12 16:21:00,55.2,53.0,29.82,NW,314,0.0,6.0,91,0.00,,,1.04,weatherlink.com 1.10,2013-02-12 22:21:00,
2013-02-12 16:36:00,55.1,52.0,29.83,NW,313,0.0,4.0,90,0.00,,,1.04,weatherlink.com 1.10,2013-02-12 22:36:00,
2013-02-12 16:51:00,55.1,52.0,29.84,WNW,285,3.0,5.0,90,0.00,,,1.04,weatherlink.com 1.10,2013-02-12 22:51:00,
2013-02-12 17:06:00,55.1,52.0,29.83,NW,304,1.0,4.0,90,0.00,,,1.04,weatherlink.com 1.10,2013-02-12 23:06:00,
2013-02-12 17:22:00,54.9,52.0,29.83,NW,304,0.0,2.0,90,0.00,,,1.04,weatherlink.com 1.10,2013-02-12 23:22:00,
2013-02-12 17:36:00,54.8,52.0,29.82,NW,305,0.0,3.0,91,0.00,,,1.04,weatherlink.com 1.10,2013-02-12 23:36:00,
2013-02-12 17:52:00,54.7,52.0,29.83,WSW,238,1.0,3.0,90,0.00,,,1.04,weatherlink.com 1.10,2013-02-12 23:52:00,
2013-02-12 18:07:00,54.6,52.0,29.83,WSW,238,0.0,1.0,90,0.00,,,1.04,weatherlink.com 1.10,2013-02-13 00:07:00,
2013-02-12 18:22:00,54.0,52.0,29.84,WSW,238,0.0,0.0,91,0.00,,,1.04,weatherlink.com 1.10,2013-02-13 00:22:00,
2013-02-12 18:37:00,53.0,51.0,29.85,WSW,238,0.0,0.0,91,0.00,,,1.04,weatherlink.com 1.10,2013-02-13 00:37:00,
2013-02-12 18:52:00,52.0,50.0,29.87,NW,323,0.0,2.0,91,0.00,,,1.04,weatherlink.com 1.10,2013-02-13 00:52:00,
2013-02-12 19:07:00,52.6,50.0,29.87,NW,321,1.0,4.0,91,0.00,,,1.04,weatherlink.com 1.10,2013-02-13 01:07:00,
2013-02-12 19:22:00,53.2,51.0,29.88,WNW,301,0.0,4.0,91,0.00,,,1.04,weatherlink.com 1.10,2013-02-13 01:22:00,
2013-02-12 19:37:00,53.6,51.0,29.88,West,268,1.0,2.0,91,0.00,,,1.04,weatherlink.com 1.10,2013-02-13 01:37:00,
2013-02-12 19:52:00,53.7,51.0,29.88,WSW,251,0.0,2.0,91,0.00,,,1.04,weatherlink.com 1.10,2013-02-13 01:52:00,
2013-02-12 20:07:00,53.2,51.0,29.89,WSW,251,0.0,3.0,91,0.00,,,1.04,weatherlink.com 1.10,2013-02-13 02:07:00,
2013-02-12 20:22:00,52.8,50.0,29.89,WSW,251,0.0,1.0,91,0.00,,,1.04,weatherlink.com 1.10,2013-02-13 02:22:00,
2013-02-12 20:37:00,52.1,50.0,29.90,WSW,251,0.0,2.0,91,0.00,,,1.04,weatherlink.com 1.10,2013-02-13 02:37:00,
2013-02-12 20:52:00,51.4,49.0,29.90,WSW,255,0.0,2.0,91,0.00,,,1.04,weatherlink.com 1.10,2013-02-13 02:52:00,
2013-02-12 21:09:00,51.3,49.0,29.91,WSW,255,0.0,2.0,91,0.00,,,1.04,weatherlink.com 1.10,2013-02-13 03:09:00,
2013-02-12 21:22:00,51.4,49.0,29.91,WNW,288,0.0,3.0,91,0.00,,,1.04,weatherlink.com 1.10,2013-02-13 03:22:00,
2013-02-12 21:37:00,51.3,49.0,29.92,West,266,1.0,4.0,91,0.00,,,1.04,weatherlink.com 1.10,2013-02-13 03:37:00,
2013-02-12 21:54:00,51.3,49.0,29.91,WNW,286,2.0,3.0,91,0.00,,,1.04,weatherlink.com 1.10,2013-02-13 03:54:00,
2013-02-12 22:07:00,51.8,49.0,29.92,WNW,302,4.0,7.0,90,0.00,,,1.04,weatherlink.com 1.10,2013-02-13 04:07:00,
2013-02-12 22:22:00,51.8,49.0,29.91,NW,321,4.0,8.0,89,0.00,,,1.04,weatherlink.com 1.10,2013-02-13 04:22:00,
2013-02-12 22:37:00,51.7,48.0,29.92,NW,321,2.0,11.0,88,0.00,,,1.04,weatherlink.com 1.10,2013-02-13 04:37:00,
2013-02-12 22:52:00,51.6,48.0,29.92,WNW,298,7.0,14.0,86,0.00,,,1.04,weatherlink.com 1.10,2013-02-13 04:52:00,
2013-02-12 23:07:00,51.2,47.0,29.93,NNW,337,3.0,12.0,85,0.00,,,1.04,weatherlink.com 1.10,2013-02-13 05:07:00,
2013-02-12 23:22:00,50.9,46.0,29.95,WNW,301,6.0,13.0,84,0.00,,,1.04,weatherlink.com 1.10,2013-02-13 05:22:00,
2013-02-12 23:37:00,50.5,46.0,29.93,North,350,3.0,8.0,84,0.00,,,1.04,weatherlink.com 1.10,2013-02-13 05:37:00,
2013-02-12 23:52:00,50.2,46.0,29.93,NW,318,4.0,10.0,84,0.00,,,1.04,weatherlink.com 1.10,2013-02-13 05:52:00,